Location: Pinhead Observatory
(34.4473°N, 118.1985°W)
Time: 02:02:40
(UTC-08:00)

CZ-4C R/B - Visible Passes

Search period start: 21 December 2014 00:00
Search period end: 31 December 2014 00:00
Orbit: 781 x 1221 km, 63.4° (Epoch: 18 December)

Date Brightness Start Highest point End Pass type
(mag) Time Alt. Az. Time Alt. Az. Time Alt. Az.
21 Dec 5.9 17:58:17 10° WNW 18:02:45 17° WSW 18:07:21 10° SW visible
22 Dec 4.7 05:40:44 10° SSE 05:44:54 23° ESE 05:49:17 10° ENE visible
23 Dec 2.8 06:12:48 10° SSW 06:18:05 63° ESE 06:23:48 10° NE visible
23 Dec 5.7 17:16:20 10° WNW 17:21:37 22° WSW 17:27:05 10° SSW visible
24 Dec 5.0 05:00:15 10° SSE 05:03:48 18° ESE 05:07:29 10° ENE visible
25 Dec 3.2 05:31:46 10° S 05:36:54 49° ESE 05:42:26 10° NE visible
26 Dec 5.1 04:20:07 10° SE 04:22:43 14° ESE 04:25:22 10° ENE visible
26 Dec 2.1 06:05:01 10° SW 06:10:22 66° WNW 06:16:12 10° NNE visible
26 Dec 6.2 17:12:35 10° W 17:13:32 10° WSW 17:14:30 10° WSW visible
27 Dec 3.5 04:50:49 10° S 04:55:44 38° ESE 05:00:59 10° NE visible
28 Dec 2.1 05:23:43 10° SSW 05:29:06 83° WNW 05:34:58 10° NNE visible
29 Dec 3.9 04:10:00 10° S 04:14:35 29° ESE 04:19:27 10° NE visible
29 Dec 2.8 05:57:57 10° WSW 06:02:53 34° NW 06:08:15 10° NNE visible
30 Dec 2.2 04:45:42 38° SSW 04:47:51 79° ESE 04:53:41 10° NNE visible
